| time (UTC) | temp C | wind direction | speed KPH | gust KPH | rain 1hr cm | rain 24hr cm | rain mn cm | humidity % | barometer mb |
| 20260507020904 | 11 | 0.0 | 0.0 | 0.00 | 0.00 | 0.00 | 99 | ||
| 20260507015902 | 12 | 0.0 | 0.0 | 0.00 | 0.00 | 0.00 | 99 | ||
| 20260507014859 | 12 | 0.0 | 0.0 | 0.00 | 0.00 | 0.00 | 99 | ||
| 20260507013857 | 12 | 0.0 | 0.0 | 0.00 | 0.00 | 0.00 | 99 | ||
| 20260507011852 | 12 | 0.0 | 0.0 | 0.00 | 0.00 | 0.00 | 99 | ||
| 20260507010847 | 12 | 0.0 | 0.0 | 0.00 | 0.00 | 0.00 | 99 | ||
| 20260507005845 | 12 | 0.0 | 0.0 | 0.00 | 0.00 | 0.00 | 99 | ||
| 20260507004841 | 12 | 0.0 | 0.0 | 0.00 | 0.00 | 0.00 | 99 | ||
| 20260507003839 | 12 | 0.0 | 0.0 | 0.00 | 0.00 | 0.00 | 99 | ||
| 20260507002836 | 12 | 0.0 | 0.0 | 0.00 | 0.00 | 0.00 | 99 | ||
| 20260507001834 | 12 | 0.0 | 0.0 | 0.00 | 0.00 | 0.00 | 99 | ||
| 20260507000831 | 12 | 0.0 | 0.0 | 0.00 | 0.00 | 0.00 | 99 | ||
| 20260506234826 | 12 | 0.0 | 0.0 | 0.00 | 0.00 | 0.00 | 99 | ||
| 20260506233824 | 12 | 0.0 | 0.0 | 0.00 | 0.00 | 0.00 | 99 | ||
| 20260506232822 | 12 | 0.0 | 0.0 | 0.00 | 0.00 | 0.00 | 99 | ||
| 20260506231819 | 12 | 0.0 | 0.0 | 0.00 | 0.00 | 0.00 | 98 | ||
| 20260506230818 | 12 | 0.0 | 0.0 | 0.00 | 0.00 | 0.00 | 98 | ||
| 20260506225814 | 13 | 0.0 | 0.0 | 0.00 | 0.00 | 0.00 | 98 | ||
| 20260506224812 | 13 | 0.0 | 0.0 | 0.00 | 0.00 | 0.00 | 98 | ||
| 20260506223809 | 13 | 0.0 | 0.0 | 0.00 | 0.00 | 0.00 | 98 | ||
| 20260506222807 | 12 | 0.0 | 0.0 | 0.00 | 0.00 | 0.00 | 99 | ||
| 20260506221804 | 12 | 0.0 | 0.0 | 0.00 | 0.00 | 0.00 | 99 | ||
| 20260506220802 | 12 | 0.0 | 0.0 | 0.00 | 0.00 | 0.00 | 99 | ||
| 20260506215800 | 12 | 0.0 | 0.0 | 0.00 | 0.00 | 0.00 | 99 | ||
| 20260506214757 | 12 | 0.0 | 0.0 | 0.00 | 0.00 | 0.00 | 99 | ||
| 20260506213754 | 12 | 0.0 | 0.0 | 0.00 | 0.00 | 0.00 | 99 | ||
| 20260506212752 | 12 | 0.0 | 0.0 | 0.00 | 0.00 | 0.00 | 98 | ||
| 20260506211750 | 13 | 0.0 | 0.0 | 0.00 | 0.00 | 0.00 | 98 | ||
| 20260506210747 | 13 | 0.0 | 0.0 | 0.00 | 0.00 | 0.00 | 96 | ||
| 20260506205745 | 12 | 0.0 | 0.0 | 0.00 | 0.00 | 0.00 | 96 | ||
| 20260506204742 | 13 | 0.0 | 0.0 | 0.00 | 0.00 | 0.00 | 95 | ||
| 20260506203740 | 13 | 0.0 | 0.0 | 0.00 | 0.00 | 0.00 | 95 | ||
| 20260506202737 | 13 | 0.0 | 0.0 | 0.00 | 0.00 | 0.00 | 95 | ||
| 20260506201735 | 13 | 0.0 | 0.0 | 0.00 | 0.00 | 0.00 | 95 | ||
| 20260506200731 | 14 | 0.0 | 0.0 | 0.00 | 0.00 | 0.00 | 92 | ||
| 20260506195729 | 15 | 0.0 | 0.0 | 0.00 | 0.00 | 0.00 | 93 | ||
| 20260506194726 | 15 | 0.0 | 0.0 | 0.00 | 0.00 | 0.00 | 89 | ||
| 20260506193724 | 15 | 0.0 | 0.0 | 0.00 | 0.00 | 0.00 | 86 | ||
| 20260506192721 | 16 | 0.0 | 0.0 | 0.00 | 0.00 | 0.00 | 85 | ||
| 20260506191719 | 16 | 0.0 | 0.0 | 0.00 | 0.00 | 0.00 | 84 | ||
| 20260506190716 | 16 | 0.0 | 0.0 | 0.00 | 0.00 | 0.00 | 83 | ||
| 20260506185716 | 17 | 0.0 | 0.0 | 0.00 | 0.00 | 0.00 | 81 | ||
| 20260506184712 | 17 | 0.0 | 0.0 | 0.00 | 0.00 | 0.00 | 80 | ||
| 20260506183709 | 17 | 0.0 | 0.0 | 0.00 | 0.00 | 0.00 | 80 | ||
| 20260506182707 | 17 | 0.0 | 0.0 | 0.00 | 0.00 | 0.00 | 79 | ||
| 20260506181704 | 18 | 0.0 | 0.0 | 0.00 | 0.00 | 0.00 | 77 | ||
| 20260506180702 | 18 | 0.0 | 0.0 | 0.00 | 0.00 | 0.00 | 76 | ||
| 20260506175659 | 19 | 0.0 | 0.0 | 0.00 | 0.00 | 0.00 | 74 | ||
| 20260506174657 | 20 | 0.0 | 0.0 | 0.00 | 0.00 | 0.00 | 74 | ||
| 20260506173654 | 20 | 0.0 | 0.0 | 0.00 | 0.00 | 0.00 | 73 | ||
| 20260506172652 | 21 | 0.0 | 0.0 | 0.00 | 0.00 | 0.00 | 70 | ||
| 20260506171649 | 22 | 0.0 | 0.0 | 0.00 | 0.00 | 0.00 | 67 | ||
| 20260506170647 | 25 | 0.0 | 0.0 | 0.00 | 0.00 | 0.00 | 62 | ||
| 20260506165644 | 27 | 0.0 | 0.0 | 0.00 | 0.00 | 0.00 | 60 | ||
| 20260506164642 | 27 | 0.0 | 0.0 | 0.00 | 0.00 | 0.00 | 59 | ||
| 20260506163640 | 26 | 0.0 | 0.0 | 0.00 | 0.00 | 0.00 | 61 | ||
| 20260506162637 | 30 | 0.0 | 0.0 | 0.00 | 0.00 | 0.00 | 57 | ||
| 20260506161635 | 28 | 0.0 | 0.0 | 0.00 | 0.00 | 0.00 | 59 | ||
| 20260506160632 | 29 | 0.0 | 0.0 | 0.00 | 0.00 | 0.00 | 58 | ||
| 20260506155630 | 28 | 0.0 | 0.0 | 0.00 | 0.00 | 0.00 | 59 | ||
| 20260506154627 | 27 | 0.0 | 0.0 | 0.00 | 0.00 | 0.00 | 60 | ||
| 20260506153625 | 23 | 0.0 | 0.0 | 0.00 | 0.00 | 0.00 | 67 | ||
| 20260506152623 | 23 | 0.0 | 0.0 | 0.00 | 0.00 | 0.00 | 67 | ||
| 20260506151620 | 24 | 0.0 | 0.0 | 0.00 | 0.00 | 0.00 | 67 | ||
| 20260506150617 | 25 | 0.0 | 0.0 | 0.00 | 0.00 | 0.00 | 65 | ||
| 20260506145615 | 22 | 0.0 | 0.0 | 0.00 | 0.00 | 0.00 | 69 | ||
| 20260506144613 | 22 | 0.0 | 0.0 | 0.00 | 0.00 | 0.00 | 71 | ||
| 20260506143609 | 21 | 0.0 | 0.0 | 0.00 | 0.00 | 0.00 | 70 | ||
| 20260506142606 | 22 | 0.0 | 0.0 | 0.00 | 0.00 | 0.00 | 70 | ||
| 20260506141604 | 21 | 0.0 | 0.0 | 0.00 | 0.00 | 0.00 | 70 | ||
| 20260506140602 | 22 | 0.0 | 0.0 | 0.00 | 0.00 | 0.00 | 68 | ||
| 20260506135559 | 22 | 0.0 | 0.0 | 0.00 | 0.00 | 0.00 | 67 | ||
| 20260506134557 | 23 | 0.0 | 0.0 | 0.00 | 0.00 | 0.00 | 67 | ||
| 20260506133554 | 23 | 0.0 | 0.0 | 0.00 | 0.00 | 0.00 | 66 | ||
| 20260506132552 | 25 | 0.0 | 0.0 | 0.00 | 0.00 | 0.00 | 64 | ||
| 20260506131549 | 23 | 0.0 | 0.0 | 0.00 | 0.00 | 0.00 | 66 | ||
| 20260506130547 | 22 | 0.0 | 0.0 | 0.00 | 0.00 | 0.00 | 68 | ||
| 20260506125544 | 21 | 0.0 | 0.0 | 0.00 | 0.00 | 0.00 | 69 | ||
| 20260506124542 | 21 | 0.0 | 0.0 | 0.00 | 0.00 | 0.00 | 70 | ||
| 20260506123539 | 21 | 0.0 | 0.0 | 0.00 | 0.00 | 0.00 | 70 | ||
| 20260506122536 | 21 | 0.0 | 0.0 | 0.00 | 0.00 | 0.00 | 70 | ||
| 20260506121534 | 21 | 0.0 | 0.0 | 0.00 | 0.00 | 0.00 | 70 | ||
| 20260506120531 | 21 | 0.0 | 0.0 | 0.00 | 0.00 | 0.00 | 69 | ||
| 20260506115529 | 22 | 0.0 | 0.0 | 0.00 | 0.00 | 0.00 | 70 | ||
| 20260506114527 | 22 | 0.0 | 0.0 | 0.00 | 0.00 | 0.00 | 68 | ||
| 20260506113524 | 22 | 0.0 | 0.0 | 0.00 | 0.00 | 0.00 | 69 | ||
| 20260506112521 | 22 | 0.0 | 0.0 | 0.00 | 0.00 | 0.00 | 67 | ||
| 20260506111518 | 22 | 0.0 | 0.0 | 0.00 | 0.00 | 0.00 | 69 | ||
| 20260506110516 | 22 | 0.0 | 0.0 | 0.00 | 0.00 | 0.00 | 67 | ||
| 20260506105513 | 22 | 0.0 | 0.0 | 0.00 | 0.00 | 0.00 | 70 | ||
| 20260506104511 | 21 | 0.0 | 0.0 | 0.00 | 0.00 | 0.00 | 71 | ||
| 20260506103508 | 21 | 0.0 | 0.0 | 0.00 | 0.00 | 0.00 | 72 | ||
| 20260506102506 | 21 | 0.0 | 0.0 | 0.00 | 0.00 | 0.00 | 71 | ||
| 20260506101503 | 21 | 0.0 | 0.0 | 0.00 | 0.00 | 0.00 | 71 | ||
| 20260506100501 | 21 | 0.0 | 0.0 | 0.00 | 0.00 | 0.00 | 72 | ||
| 20260506095458 | 20 | 0.0 | 0.0 | 0.00 | 0.00 | 0.00 | 73 | ||
| 20260506094456 | 20 | 0.0 | 0.0 | 0.00 | 0.00 | 0.00 | 72 | ||
| 20260506093453 | 20 | 0.0 | 0.0 | 0.00 | 0.00 | 0.00 | 74 | ||
| 20260506092451 | 20 | 0.0 | 0.0 | 0.00 | 0.00 | 0.00 | 72 | ||
| 20260506091448 | 20 | 0.0 | 0.0 | 0.00 | 0.00 | 0.00 | 74 | ||
| 20260506090446 | 20 | 0.0 | 0.0 | 0.00 | 0.00 | 0.00 | 75 | ||
| 20260506085443 | 19 | 0.0 | 0.0 | 0.00 | 0.00 | 0.00 | 74 | ||
| 20260506084441 | 20 | 0.0 | 0.0 | 0.00 | 0.00 | 0.00 | 75 | ||
| 20260506083438 | 20 | 0.0 | 0.0 | 0.00 | 0.00 | 0.00 | 76 | ||
| 20260506082436 | 18 | 0.0 | 0.0 | 0.00 | 0.00 | 0.00 | 77 | ||
| 20260506081433 | 19 | 0.0 | 0.0 | 0.00 | 0.00 | 0.00 | 77 | ||
| 20260506080431 | 18 | 0.0 | 0.0 | 0.00 | 0.00 | 0.00 | 80 | ||
| 20260506073424 | 17 | 0.0 | 0.0 | 0.00 | 0.00 | 0.00 | 83 | ||
| 20260506072421 | 17 | 0.0 | 0.0 | 0.00 | 0.00 | 0.00 | 83 | ||
| 20260506071419 | 16 | 0.0 | 0.0 | 0.00 | 0.00 | 0.00 | 86 | ||
| 20260506070416 | 16 | 0.0 | 0.0 | 0.00 | 0.00 | 0.00 | 86 | ||
| 20260506062407 | 15 | 0.0 | 0.0 | 0.00 | 0.00 | 0.00 | 90 | ||
| 20260506061404 | 15 | 0.0 | 0.0 | 0.00 | 0.00 | 0.00 | 90 | ||
| 20260506060401 | 14 | 0.0 | 0.0 | 0.00 | 0.00 | 0.00 | 93 | ||
| 20260506051349 | 10 | 0.0 | 0.0 | 0.00 | 0.00 | 0.00 | 99 | ||
| 20260506050347 | 10 | 0.0 | 0.0 | 0.00 | 0.00 | 0.00 | 99 | ||
| 20260506044342 | 9 | 0.0 | 0.0 | 0.00 | 0.00 | 0.00 | 99 | ||
| 20260506043339 | 8 | 0.0 | 0.0 | 0.00 | 0.00 | 0.00 | 99 | ||
| 20260506042337 | 8 | 0.0 | 0.0 | 0.00 | 0.00 | 0.00 | 99 | ||
| 20260506041334 | 8 | 0.0 | 0.0 | 0.00 | 0.00 | 0.00 | 99 | ||
| 20260506040332 | 8 | 0.0 | 0.0 | 0.00 | 0.00 | 0.00 | 99 | ||
| 20260506035329 | 8 | 0.0 | 0.0 | 0.00 | 0.00 | 0.00 | 99 | ||
| 20260506034327 | 8 | 0.0 | 0.0 | 0.00 | 0.00 | 0.00 | 99 | ||
| 20260506033324 | 8 | 0.0 | 0.0 | 0.00 | 0.00 | 0.00 | 99 | ||
| 20260506032322 | 8 | 0.0 | 0.0 | 0.00 | 0.00 | 0.00 | 99 | ||
| 20260506031319 | 8 | 0.0 | 0.0 | 0.00 | 0.00 | 0.00 | 99 | ||
| 20260506030317 | 9 | 0.0 | 0.0 | 0.00 | 0.00 | 0.00 | 99 | ||
| 20260506025315 | 9 | 0.0 | 0.0 | 0.00 | 0.00 | 0.00 | 99 | ||
| 20260506024312 | 9 | 0.0 | 0.0 | 0.00 | 0.00 | 0.00 | 99 | ||
| 20260506023310 | 10 | 0.0 | 0.0 | 0.00 | 0.00 | 0.00 | 99 | ||
| 20260506022307 | 10 | 0.0 | 0.0 | 0.00 | 0.00 | 0.00 | 99 |